Voltar ao catálogo

STARLINK-6291

AtivoComunicaçõesVLEO
NORAD 56547·PAYLOAD·🇺🇸 United States

Lançado May 14, 2023 de Cape Canaveral Space Force Station

Loading…

Próximas Passagens (próximas 24 horas)

TLE

AtualizadoSource: CelesTrak SupGP

Época: Sep 14, 2026, 21:11 UTC

1 56547C 23065AW  26257.88312500  .00025568  00000+0  92632-3 0  2579
2 56547  43.0027 235.0414 0000854 274.2555 233.6927 15.27557644    10

Acompanhe STARLINK-6291 em tempo real com AllMySat

Download on the App Store